This is the latest recevied weather packets stored in our database for station/object N7NIP. If no packets are shown the sender has not sent any weather packets the latest 10 day(s).
| Time | Temp. | Humidity | Pressure | Rain* | Wind** | Luminosity | Snow |
|---|---|---|---|---|---|---|---|
| 1777611129 | 11.67° C | 88% | 1030.8 hPa | 0 mm | - | 0 W/m² | - |
| 1777610829 | 12.22° C | 87% | 1030.7 hPa | 0 mm | - | 0 W/m² | - |
| 1777610524 | 11.67° C | 88% | 1031.1 hPa | 0 mm | - | 0 W/m² | - |
| 1777610219 | 11.67° C | 87% | 1030.8 hPa | 0 mm | - | 0 W/m² | - |
| 1777609916 | 12.22° C | 86% | 1030.9 hPa | 0 mm | - | 0 W/m² | - |
| 1777609613 | 12.22° C | 85% | 1030.7 hPa | 0 mm | - | 0 W/m² | - |
| 1777609310 | 12.78° C | 84% | 1030.6 hPa | 0 mm | - | 0 W/m² | - |
| 1777609007 | 13.33° C | 82% | 1030.6 hPa | 0 mm | - | 0 W/m² | - |
| 1777608704 | 13.89° C | 80% | 1030.5 hPa | 0 mm | - | 0 W/m² | - |
| 1777608401 | 13.89° C | 80% | 1030.5 hPa | 0 mm | - | 0 W/m² | - |
| 1777608099 | 13.89° C | 80% | 1030.2 hPa | 0 mm | - | 0 W/m² | - |
| 1777607795 | 13.89° C | 80% | 1030.4 hPa | 0 mm | - | 0 W/m² | - |
| 1777607491 | 13.89° C | 78% | 1030.3 hPa | 0 mm | - | 0 W/m² | - |
| 1777607188 | 14.44° C | 77% | 1030 hPa | 0 mm | - | 0 W/m² | - |
| 1777606884 | 15° C | 76% | 1030.3 hPa | 0 mm | - | 0 W/m² | - |
| 1777606580 | 15° C | 75% | 1030.2 hPa | 0 mm | - | 0 W/m² | - |
| 1777606275 | 15.56° C | 73% | 1030.1 hPa | 0 mm | - | 1 W/m² | - |
| 1777605971 | 15.56° C | 71% | 1030.1 hPa | 0 mm | - | 2 W/m² | - |
| 1777605667 | 16.11° C | 70% | 1029.8 hPa | 0 mm | - | 3 W/m² | - |
| 1777605366 | 16.67° C | 67% | 1030 hPa | 0 mm | - | 4 W/m² | - |
| 1777605063 | 17.22° C | 65% | 1030 hPa | 0 mm | - | 6 W/m² | - |
| 1777604758 | 17.22° C | 64% | 1030 hPa | 0 mm | - | 8 W/m² | - |
| 1777604456 | 17.78° C | 62% | 1029.8 hPa | 0 mm | - | 10 W/m² | - |
| 1777604155 | 18.33° C | 61% | 1030 hPa | 0 mm | - | 13 W/m² | - |
| 1777603852 | 18.33° C | 59% | 1030 hPa | 0 mm | - | 16 W/m² | - |
* Rain latest hour (hover to see other rain measurements)
** Current wind speed in m/s (hover to see current wind gust speed)